Year,Month,Day,Hour,Minute,Value (Times are PST for windspeed in km/hr)
2017,06,16,00,00,0.10
2017,06,16,00,01,0.10
2017,06,16,00,02,7.00
2017,06,16,00,03,3.30
2017,06,16,00,04,2.00
2017,06,16,00,05,0.10
2017,06,16,00,06,0.00
2017,06,16,00,07,0.00
2017,06,16,00,08,0.00
2017,06,16,00,09,1.60
2017,06,16,00,10,2.10
2017,06,16,00,11,3.00
2017,06,16,00,12,0.00
2017,06,16,00,13,0.00
2017,06,16,00,14,0.00
2017,06,16,00,15,3.70
2017,06,16,00,16,1.50
2017,06,16,00,17,0.20
2017,06,16,00,18,3.90
2017,06,16,00,19,8.60
2017,06,16,00,20,2.60
2017,06,16,00,21,5.50
2017,06,16,00,22,0.10
2017,06,16,00,23,8.80
2017,06,16,00,24,3.70
2017,06,16,00,25,0.20
2017,06,16,00,26,0.00
2017,06,16,00,27,6.30
2017,06,16,00,28,6.40
2017,06,16,00,29,7.20
2017,06,16,00,30,4.00
2017,06,16,00,31,5.20
2017,06,16,00,32,4.20
2017,06,16,00,33,5.60
2017,06,16,00,34,1.90
2017,06,16,00,35,7.10
2017,06,16,00,36,3.70
2017,06,16,00,37,1.20
2017,06,16,00,38,7.30
2017,06,16,00,39,6.50
2017,06,16,00,40,2.20
2017,06,16,00,41,10.90
2017,06,16,00,42,9.10
2017,06,16,00,43,1.30
2017,06,16,00,44,1.40
2017,06,16,00,45,8.90
2017,06,16,00,46,6.10
2017,06,16,00,47,7.40
2017,06,16,00,48,7.10
2017,06,16,00,49,6.20
2017,06,16,00,50,6.40
2017,06,16,00,51,2.60
2017,06,16,00,52,5.70
2017,06,16,00,53,6.40
2017,06,16,00,54,6.70
2017,06,16,00,55,0.30
2017,06,16,00,56,6.40
2017,06,16,00,57,1.00
2017,06,16,00,58,8.10
2017,06,16,00,59,1.60
2017,06,16,01,00,5.70
2017,06,16,01,01,0.80
2017,06,16,01,02,0.40
2017,06,16,01,03,10.70
2017,06,16,01,04,3.60
2017,06,16,01,05,2.20
2017,06,16,01,06,1.60
2017,06,16,01,07,4.00
2017,06,16,01,08,5.30
2017,06,16,01,09,9.00
2017,06,16,01,10,0.00
2017,06,16,01,11,4.40
2017,06,16,01,12,6.30
2017,06,16,01,13,6.00
2017,06,16,01,14,6.10
2017,06,16,01,15,0.60
2017,06,16,01,16,2.40
2017,06,16,01,17,4.80
2017,06,16,01,18,10.10
2017,06,16,01,19,10.50
2017,06,16,01,20,6.10
2017,06,16,01,21,0.80
2017,06,16,01,22,4.00
2017,06,16,01,23,7.90
2017,06,16,01,24,7.10
2017,06,16,01,25,4.80
2017,06,16,01,26,8.60
2017,06,16,01,27,14.20
2017,06,16,01,28,6.20
2017,06,16,01,29,5.60
2017,06,16,01,30,14.00
2017,06,16,01,31,12.60
2017,06,16,01,32,10.30
2017,06,16,01,33,8.10
2017,06,16,01,34,9.00
2017,06,16,01,35,1.30
2017,06,16,01,36,2.60
2017,06,16,01,37,7.70
2017,06,16,01,38,6.00
2017,06,16,01,39,3.10
2017,06,16,01,40,10.00
2017,06,16,01,41,12.60
2017,06,16,01,42,4.20
2017,06,16,01,43,4.30
2017,06,16,01,44,4.40
2017,06,16,01,45,0.20
2017,06,16,01,46,7.20
2017,06,16,01,47,7.70
2017,06,16,01,48,6.00
2017,06,16,01,49,0.10
2017,06,16,01,50,5.40
2017,06,16,01,51,7.40
2017,06,16,01,52,8.70
2017,06,16,01,53,9.40
2017,06,16,01,54,7.60
2017,06,16,01,55,9.70
2017,06,16,01,56,0.40
2017,06,16,01,57,2.90
2017,06,16,01,58,9.30
2017,06,16,01,59,7.40
2017,06,16,02,00,5.60
2017,06,16,02,01,0.70
2017,06,16,02,02,8.50
2017,06,16,02,03,8.10
2017,06,16,02,04,1.80
2017,06,16,02,05,0.70
2017,06,16,02,06,0.50
2017,06,16,02,07,2.50
2017,06,16,02,08,1.90
2017,06,16,02,09,0.20
2017,06,16,02,10,0.10
2017,06,16,02,11,5.90
2017,06,16,02,12,7.10
2017,06,16,02,13,8.80
2017,06,16,02,14,1.10
2017,06,16,02,15,7.00
2017,06,16,02,16,6.30
2017,06,16,02,17,5.20
2017,06,16,02,18,13.80
2017,06,16,02,19,7.80
2017,06,16,02,20,7.90
2017,06,16,02,21,0.00
2017,06,16,02,22,7.20
2017,06,16,02,23,8.00
2017,06,16,02,24,7.90
2017,06,16,02,25,4.20
2017,06,16,02,26,6.20
2017,06,16,02,27,5.10
2017,06,16,02,28,9.60
2017,06,16,02,29,10.30
2017,06,16,02,30,2.80
2017,06,16,02,31,1.40
2017,06,16,02,32,0.10
2017,06,16,02,33,0.50
2017,06,16,02,34,7.90
2017,06,16,02,35,8.60
2017,06,16,02,36,3.10
2017,06,16,02,37,4.70
2017,06,16,02,38,6.10
2017,06,16,02,39,9.40
2017,06,16,02,40,9.70
2017,06,16,02,41,11.80
2017,06,16,02,42,7.30
2017,06,16,02,43,2.70
2017,06,16,02,44,0.00
2017,06,16,02,45,0.00
2017,06,16,02,46,3.00
2017,06,16,02,47,0.00
2017,06,16,02,48,0.00
2017,06,16,02,49,0.00
2017,06,16,02,50,0.00
2017,06,16,02,51,0.00
2017,06,16,02,52,0.00
2017,06,16,02,53,0.00
2017,06,16,02,54,0.00
2017,06,16,02,55,0.00
2017,06,16,02,56,0.00
2017,06,16,02,57,0.00
2017,06,16,02,58,0.30
2017,06,16,02,59,3.10
2017,06,16,03,00,4.70
2017,06,16,03,01,5.10
2017,06,16,03,02,6.40
2017,06,16,03,03,5.50
2017,06,16,03,04,11.90
2017,06,16,03,05,2.00
2017,06,16,03,06,3.20
2017,06,16,03,07,8.90
2017,06,16,03,08,7.60
2017,06,16,03,09,7.50
2017,06,16,03,10,3.10
2017,06,16,03,11,0.10
2017,06,16,03,12,2.70
2017,06,16,03,13,5.70
2017,06,16,03,14,1.20
2017,06,16,03,15,0.00
2017,06,16,03,16,0.60
2017,06,16,03,17,4.10
2017,06,16,03,18,9.70
2017,06,16,03,19,7.40
2017,06,16,03,20,6.20
2017,06,16,03,21,3.70
2017,06,16,03,22,7.20
2017,06,16,03,23,3.50
2017,06,16,03,24,0.00
2017,06,16,03,25,0.00
2017,06,16,03,26,1.20
2017,06,16,03,27,2.30
2017,06,16,03,28,7.50
2017,06,16,03,29,4.20
2017,06,16,03,30,0.10
2017,06,16,03,31,0.00
2017,06,16,03,32,0.00
2017,06,16,03,33,2.90
2017,06,16,03,34,3.50
2017,06,16,03,35,2.10
2017,06,16,03,36,0.00
2017,06,16,03,37,1.80
2017,06,16,03,38,5.90
2017,06,16,03,39,2.80
2017,06,16,03,40,5.90
2017,06,16,03,41,6.00
2017,06,16,03,42,2.00
2017,06,16,03,43,3.90
2017,06,16,03,44,2.30
2017,06,16,03,45,5.60
2017,06,16,03,46,11.40
2017,06,16,03,47,11.10
2017,06,16,03,48,7.00
2017,06,16,03,49,3.10
2017,06,16,03,50,0.00
2017,06,16,03,51,0.00
2017,06,16,03,52,0.00
2017,06,16,03,53,0.00
2017,06,16,03,54,1.00
2017,06,16,03,55,4.50
2017,06,16,03,56,12.10
2017,06,16,03,57,8.70
2017,06,16,03,58,8.20
2017,06,16,03,59,8.00
2017,06,16,04,00,2.60
2017,06,16,04,01,4.40
2017,06,16,04,02,6.40
2017,06,16,04,03,9.50
2017,06,16,04,04,5.80
2017,06,16,04,05,0.00
2017,06,16,04,06,3.10
2017,06,16,04,07,8.00
2017,06,16,04,08,2.60
2017,06,16,04,09,9.00
2017,06,16,04,10,2.10
2017,06,16,04,11,0.50
2017,06,16,04,12,0.00
2017,06,16,04,13,4.30
2017,06,16,04,14,2.60
2017,06,16,04,15,9.60
2017,06,16,04,16,5.50
2017,06,16,04,17,10.50
2017,06,16,04,18,0.00
2017,06,16,04,19,0.10
2017,06,16,04,20,0.00
2017,06,16,04,21,0.10
2017,06,16,04,22,1.90
2017,06,16,04,23,6.60
2017,06,16,04,24,3.60
2017,06,16,04,25,5.00
2017,06,16,04,26,9.00
2017,06,16,04,27,8.20
2017,06,16,04,28,9.20
2017,06,16,04,29,6.30
2017,06,16,04,30,3.90
2017,06,16,04,31,1.10
2017,06,16,04,32,0.00
2017,06,16,04,33,0.00
2017,06,16,04,34,0.00
2017,06,16,04,35,0.00
2017,06,16,04,36,0.00
2017,06,16,04,37,0.00
2017,06,16,04,38,1.40
2017,06,16,04,39,2.00
2017,06,16,04,40,0.00
2017,06,16,04,41,6.90
2017,06,16,04,42,0.60
2017,06,16,04,43,0.00
2017,06,16,04,44,0.00
2017,06,16,04,45,0.10
2017,06,16,04,46,3.60
2017,06,16,04,47,0.30
2017,06,16,04,48,0.00
2017,06,16,04,49,2.40
2017,06,16,04,50,0.10
2017,06,16,04,51,1.90
2017,06,16,04,52,2.20
2017,06,16,04,53,0.00
2017,06,16,04,54,0.00
2017,06,16,04,55,0.60
2017,06,16,04,56,2.60
2017,06,16,04,57,1.00
2017,06,16,04,58,0.00
2017,06,16,04,59,0.00
2017,06,16,05,00,0.00
2017,06,16,05,01,0.00
2017,06,16,05,02,0.00
2017,06,16,05,03,0.00
2017,06,16,05,04,0.00
2017,06,16,05,05,0.10
2017,06,16,05,06,0.00
2017,06,16,05,07,0.00
2017,06,16,05,08,0.00
2017,06,16,05,09,0.00
2017,06,16,05,10,0.00
2017,06,16,05,11,0.00
2017,06,16,05,12,0.00
2017,06,16,05,13,0.00
2017,06,16,05,14,0.00
2017,06,16,05,15,0.00
2017,06,16,05,16,0.00
2017,06,16,05,17,0.00
2017,06,16,05,18,2.80
2017,06,16,05,19,6.60
2017,06,16,05,20,0.90
2017,06,16,05,21,0.60
2017,06,16,05,22,4.60
2017,06,16,05,23,2.90
2017,06,16,05,24,2.50
2017,06,16,05,25,1.90
2017,06,16,05,26,2.10
2017,06,16,05,27,0.00
2017,06,16,05,28,0.00
2017,06,16,05,29,0.00
2017,06,16,05,30,0.00
2017,06,16,05,31,0.10
2017,06,16,05,32,0.00
2017,06,16,05,33,0.00
2017,06,16,05,34,1.10
2017,06,16,05,35,1.20
2017,06,16,05,36,0.00
2017,06,16,05,37,0.00
2017,06,16,05,38,0.00
2017,06,16,05,39,1.50
2017,06,16,05,40,3.50
2017,06,16,05,41,0.20
2017,06,16,05,42,0.00
2017,06,16,05,43,0.80
2017,06,16,05,44,1.50
2017,06,16,05,45,0.00
2017,06,16,05,46,0.00
2017,06,16,05,47,0.00
2017,06,16,05,48,3.20
2017,06,16,05,49,4.30
2017,06,16,05,50,0.50
2017,06,16,05,51,0.30
2017,06,16,05,52,0.80
2017,06,16,05,53,0.00
2017,06,16,05,54,0.00
2017,06,16,05,55,0.00
2017,06,16,05,56,0.00
2017,06,16,05,57,0.00
2017,06,16,05,58,0.00
2017,06,16,05,59,0.00
2017,06,16,06,00,0.00
2017,06,16,06,01,0.00
2017,06,16,06,02,0.00
2017,06,16,06,03,0.00
2017,06,16,06,04,0.00
2017,06,16,06,05,0.00
2017,06,16,06,06,0.00
2017,06,16,06,07,0.00
2017,06,16,06,08,0.00
2017,06,16,06,09,0.00
2017,06,16,06,10,0.00
2017,06,16,06,11,0.00
2017,06,16,06,12,0.00
2017,06,16,06,13,0.00
2017,06,16,06,14,0.00
2017,06,16,06,15,0.00
2017,06,16,06,16,0.00
2017,06,16,06,17,0.00
2017,06,16,06,18,0.00
2017,06,16,06,19,0.00
2017,06,16,06,20,0.00
2017,06,16,06,21,0.00
2017,06,16,06,22,0.00
2017,06,16,06,23,0.00
2017,06,16,06,24,0.00
2017,06,16,06,25,0.00
2017,06,16,06,26,0.00
2017,06,16,06,27,0.00
2017,06,16,06,28,0.00
2017,06,16,06,29,0.00
2017,06,16,06,30,0.00
2017,06,16,06,31,0.00
2017,06,16,06,32,0.00
2017,06,16,06,33,0.00
2017,06,16,06,34,0.00
2017,06,16,06,35,0.00
2017,06,16,06,36,0.00
2017,06,16,06,37,0.00
2017,06,16,06,38,0.00
2017,06,16,06,39,0.00
2017,06,16,06,40,0.00
2017,06,16,06,41,0.00
2017,06,16,06,42,0.00
2017,06,16,06,43,0.00
2017,06,16,06,44,0.00
2017,06,16,06,45,0.00
2017,06,16,06,46,0.00
2017,06,16,06,47,0.00
2017,06,16,06,48,0.00
2017,06,16,06,49,0.00
2017,06,16,06,50,0.00
2017,06,16,06,51,0.00
2017,06,16,06,52,0.00
2017,06,16,06,53,0.00
2017,06,16,06,54,0.00
2017,06,16,06,55,0.00
2017,06,16,06,56,0.00
2017,06,16,06,57,0.00
2017,06,16,06,58,0.00
2017,06,16,06,59,0.00
2017,06,16,07,00,0.00
2017,06,16,07,01,0.00
2017,06,16,07,02,0.00
2017,06,16,07,03,0.00
2017,06,16,07,04,0.00
2017,06,16,07,05,0.00
2017,06,16,07,06,0.00
2017,06,16,07,07,0.00
2017,06,16,07,08,0.00
2017,06,16,07,09,0.00
2017,06,16,07,10,0.10
2017,06,16,07,11,0.00
2017,06,16,07,12,0.00
2017,06,16,07,13,0.00
2017,06,16,07,14,0.00
2017,06,16,07,15,0.00
2017,06,16,07,16,0.00
2017,06,16,07,17,0.00
2017,06,16,07,18,0.00
2017,06,16,07,19,0.00
2017,06,16,07,20,0.00
2017,06,16,07,21,0.00
2017,06,16,07,22,0.00
2017,06,16,07,23,0.00
2017,06,16,07,24,0.50
2017,06,16,07,25,4.20
2017,06,16,07,26,1.50
2017,06,16,07,27,2.50
2017,06,16,07,28,0.40
2017,06,16,07,29,0.00
2017,06,16,07,30,0.00
2017,06,16,07,31,1.70
2017,06,16,07,32,1.40
2017,06,16,07,33,0.00
2017,06,16,07,34,3.00
2017,06,16,07,35,0.00
2017,06,16,07,36,0.00
2017,06,16,07,37,0.00
2017,06,16,07,38,0.00
2017,06,16,07,39,0.00
2017,06,16,07,40,0.00
2017,06,16,07,41,0.00
2017,06,16,07,42,0.00
2017,06,16,07,43,0.00
2017,06,16,07,44,0.00
2017,06,16,07,45,0.00
2017,06,16,07,46,0.00
2017,06,16,07,47,0.00
2017,06,16,07,48,0.10
2017,06,16,07,49,0.00
2017,06,16,07,50,0.00
2017,06,16,07,51,0.00
2017,06,16,07,52,0.00
2017,06,16,07,53,0.00
2017,06,16,07,54,0.00
2017,06,16,07,55,0.00
2017,06,16,07,56,0.00
2017,06,16,07,57,0.00
2017,06,16,07,58,0.00
2017,06,16,07,59,0.00
2017,06,16,08,00,0.00
2017,06,16,08,01,0.00
2017,06,16,08,02,0.00
2017,06,16,08,03,0.00
2017,06,16,08,04,0.00
2017,06,16,08,05,0.00
2017,06,16,08,06,0.00
2017,06,16,08,07,0.00
2017,06,16,08,08,0.00
2017,06,16,08,09,0.00
2017,06,16,08,10,0.00
2017,06,16,08,11,0.00
2017,06,16,08,12,0.00
2017,06,16,08,13,0.00
2017,06,16,08,14,0.00
2017,06,16,08,15,0.10
2017,06,16,08,16,0.00
2017,06,16,08,17,0.00
2017,06,16,08,18,1.40
2017,06,16,08,19,3.50
2017,06,16,08,20,4.90
2017,06,16,08,21,4.40
2017,06,16,08,22,3.90
2017,06,16,08,23,5.30
2017,06,16,08,24,4.40
2017,06,16,08,25,0.00
2017,06,16,08,26,0.00
2017,06,16,08,27,0.00
2017,06,16,08,28,0.00
2017,06,16,08,29,0.00
2017,06,16,08,30,0.10
2017,06,16,08,31,0.00
2017,06,16,08,32,0.00
2017,06,16,08,33,2.50
2017,06,16,08,34,7.90
2017,06,16,08,35,2.20
2017,06,16,08,36,1.70
2017,06,16,08,37,5.70
2017,06,16,08,38,0.60
2017,06,16,08,39,0.10
2017,06,16,08,40,0.00
2017,06,16,08,41,0.00
2017,06,16,08,42,0.10
2017,06,16,08,43,0.00
2017,06,16,08,44,0.00
2017,06,16,08,45,5.60
2017,06,16,08,46,5.20
2017,06,16,08,47,6.30
2017,06,16,08,48,6.30
2017,06,16,08,49,3.30
2017,06,16,08,50,6.20
2017,06,16,08,51,9.70
2017,06,16,08,52,6.30
2017,06,16,08,53,8.20
2017,06,16,08,54,5.50
2017,06,16,08,55,6.30
2017,06,16,08,56,2.90
2017,06,16,08,57,4.40
2017,06,16,08,58,3.90
2017,06,16,08,59,2.30
2017,06,16,09,00,0.00
2017,06,16,09,01,2.80
2017,06,16,09,02,2.70
2017,06,16,09,03,0.80
2017,06,16,09,04,0.00
2017,06,16,09,05,0.00
2017,06,16,09,06,0.00
2017,06,16,09,07,4.10
2017,06,16,09,08,0.00
2017,06,16,09,09,0.00
2017,06,16,09,10,0.00
2017,06,16,09,11,0.00
2017,06,16,09,12,2.10
2017,06,16,09,13,1.40
2017,06,16,09,14,0.00
2017,06,16,09,15,0.00
2017,06,16,09,16,4.20
2017,06,16,09,17,0.20
2017,06,16,09,18,0.00
2017,06,16,09,19,0.00
2017,06,16,09,20,2.10
2017,06,16,09,21,4.60
2017,06,16,09,22,4.20
2017,06,16,09,23,0.00
2017,06,16,09,24,0.10
2017,06,16,09,25,0.00
2017,06,16,09,26,1.70
2017,06,16,09,27,0.70
2017,06,16,09,28,0.00
2017,06,16,09,29,0.00
2017,06,16,09,30,0.00
2017,06,16,09,31,0.10
2017,06,16,09,32,0.00
2017,06,16,09,33,0.00
2017,06,16,09,34,0.00
2017,06,16,09,35,0.00
2017,06,16,09,36,0.10
2017,06,16,09,37,0.30
2017,06,16,09,38,3.70
2017,06,16,09,39,4.90
2017,06,16,09,40,2.60
2017,06,16,09,41,5.90
2017,06,16,09,42,7.70
2017,06,16,09,43,3.90
2017,06,16,09,44,0.20
2017,06,16,09,45,0.00
2017,06,16,09,46,0.00
2017,06,16,09,47,4.40
2017,06,16,09,48,6.50
2017,06,16,09,49,4.00
2017,06,16,09,50,8.50
2017,06,16,09,51,6.80
2017,06,16,09,52,5.70
2017,06,16,09,53,10.20
2017,06,16,09,54,5.60
2017,06,16,09,55,4.70
2017,06,16,09,56,0.20
2017,06,16,09,57,0.10
2017,06,16,09,58,5.60
2017,06,16,09,59,9.20
2017,06,16,10,00,10.90
2017,06,16,10,01,10.90
2017,06,16,10,02,8.10
2017,06,16,10,03,0.90
2017,06,16,10,04,3.40
2017,06,16,10,05,0.10
2017,06,16,10,06,0.00
2017,06,16,10,07,0.00
2017,06,16,10,08,7.00
2017,06,16,10,09,4.60
2017,06,16,10,10,3.90
2017,06,16,10,11,2.80
2017,06,16,10,12,7.60
2017,06,16,10,13,6.50
2017,06,16,10,14,6.40
2017,06,16,10,15,6.50
2017,06,16,10,16,4.00
2017,06,16,10,17,5.50
2017,06,16,10,18,7.60
2017,06,16,10,19,2.60
2017,06,16,10,20,0.10
2017,06,16,10,21,0.00
2017,06,16,10,22,0.00
2017,06,16,10,23,0.00
2017,06,16,10,24,1.90
2017,06,16,10,25,3.40
2017,06,16,10,26,3.50
2017,06,16,10,27,5.50
2017,06,16,10,28,2.70
2017,06,16,10,29,2.80
2017,06,16,10,30,0.00
2017,06,16,10,31,0.00
2017,06,16,10,32,3.10
2017,06,16,10,33,6.70
2017,06,16,10,34,2.80
2017,06,16,10,35,10.10
2017,06,16,10,36,7.40
2017,06,16,10,37,2.70
2017,06,16,10,38,0.00
2017,06,16,10,39,0.00
2017,06,16,10,40,4.10
2017,06,16,10,41,5.70
2017,06,16,10,42,6.40
2017,06,16,10,43,4.00
2017,06,16,10,44,2.50
2017,06,16,10,45,0.10
2017,06,16,10,46,0.00
2017,06,16,10,47,0.10
2017,06,16,10,48,0.00
2017,06,16,10,49,0.00
2017,06,16,10,50,0.20
2017,06,16,10,51,0.00
2017,06,16,10,52,4.80
2017,06,16,10,53,5.10
2017,06,16,10,54,2.50
2017,06,16,10,55,8.20
2017,06,16,10,56,3.50
2017,06,16,10,57,2.50
2017,06,16,10,58,9.10
2017,06,16,10,59,9.90
2017,06,16,11,00,10.20
2017,06,16,11,01,3.80
2017,06,16,11,02,0.10
2017,06,16,11,03,5.60
2017,06,16,11,04,7.80
2017,06,16,11,05,0.10
2017,06,16,11,06,0.00
2017,06,16,11,07,0.00
2017,06,16,11,08,0.00
2017,06,16,11,09,2.40
2017,06,16,11,10,1.10
2017,06,16,11,11,1.00
2017,06,16,11,12,2.30
2017,06,16,11,13,1.70
2017,06,16,11,14,3.10
2017,06,16,11,15,0.00
2017,06,16,11,16,6.90
2017,06,16,11,17,8.40
2017,06,16,11,18,7.30
2017,06,16,11,19,3.80
2017,06,16,11,20,1.00
2017,06,16,11,21,0.10
2017,06,16,11,22,1.00
2017,06,16,11,23,4.50
2017,06,16,11,24,0.00
2017,06,16,11,25,0.00
2017,06,16,11,26,0.00
2017,06,16,11,27,0.00
2017,06,16,11,28,0.00
2017,06,16,11,29,4.80
2017,06,16,11,30,7.70
2017,06,16,11,31,6.70
2017,06,16,11,32,2.80
2017,06,16,11,33,4.00
2017,06,16,11,34,0.10
2017,06,16,11,35,2.10
2017,06,16,11,36,0.00
2017,06,16,11,37,0.00
2017,06,16,11,38,0.10
2017,06,16,11,39,3.70
2017,06,16,11,40,3.80
2017,06,16,11,41,9.00
2017,06,16,11,42,8.00
2017,06,16,11,43,1.80
2017,06,16,11,44,7.70
2017,06,16,11,45,7.10
2017,06,16,11,46,7.00
2017,06,16,11,47,5.70
2017,06,16,11,48,4.90
2017,06,16,11,49,6.20
2017,06,16,11,50,8.30
2017,06,16,11,51,6.70
2017,06,16,11,52,6.60
2017,06,16,11,53,6.90
2017,06,16,11,54,11.90
2017,06,16,11,55,1.90
2017,06,16,11,56,3.40
2017,06,16,11,57,4.20
2017,06,16,11,58,3.70
2017,06,16,11,59,2.20
2017,06,16,12,00,4.10
2017,06,16,12,01,8.40
2017,06,16,12,02,7.70
2017,06,16,12,03,2.90
2017,06,16,12,04,8.90
2017,06,16,12,05,3.90
2017,06,16,12,06,8.50
2017,06,16,12,07,3.10
2017,06,16,12,08,0.00
2017,06,16,12,09,0.00
2017,06,16,12,10,3.80
2017,06,16,12,11,5.20
2017,06,16,12,12,0.10
2017,06,16,12,13,3.50
2017,06,16,12,14,8.90
2017,06,16,12,15,8.40
2017,06,16,12,16,8.80
2017,06,16,12,17,11.80
2017,06,16,12,18,4.40
2017,06,16,12,19,3.40
2017,06,16,12,20,0.00
2017,06,16,12,21,0.10
2017,06,16,12,22,1.10
2017,06,16,12,23,3.80
2017,06,16,12,24,4.60
2017,06,16,12,25,2.50
2017,06,16,12,26,0.00
2017,06,16,12,27,0.20
2017,06,16,12,28,2.20
2017,06,16,12,29,0.30
2017,06,16,12,30,7.30
2017,06,16,12,31,6.10
2017,06,16,12,32,2.70
2017,06,16,12,33,5.60
2017,06,16,12,34,1.40
2017,06,16,12,35,2.00
2017,06,16,12,36,3.40
2017,06,16,12,37,0.10
2017,06,16,12,38,0.00
2017,06,16,12,39,2.20
2017,06,16,12,40,2.70
2017,06,16,12,41,2.40
2017,06,16,12,42,5.60
2017,06,16,12,43,5.10
2017,06,16,12,44,2.40
2017,06,16,12,45,1.20
2017,06,16,12,46,1.70
2017,06,16,12,47,6.80
2017,06,16,12,48,8.80
2017,06,16,12,49,8.10
2017,06,16,12,50,8.50
2017,06,16,12,51,10.00
2017,06,16,12,52,11.70
2017,06,16,12,53,10.70
2017,06,16,12,54,13.10
2017,06,16,12,55,10.00
2017,06,16,12,56,7.00
2017,06,16,12,57,7.30
2017,06,16,12,58,10.20
2017,06,16,12,59,6.90
2017,06,16,13,00,2.90
2017,06,16,13,01,10.00
2017,06,16,13,02,6.80
2017,06,16,13,03,7.20
2017,06,16,13,04,4.80
2017,06,16,13,05,8.50
2017,06,16,13,06,6.80
2017,06,16,13,07,0.20
2017,06,16,13,08,0.00
2017,06,16,13,09,6.40
2017,06,16,13,10,7.10
2017,06,16,13,11,2.50
2017,06,16,13,12,7.70
2017,06,16,13,13,8.70
2017,06,16,13,14,9.90
2017,06,16,13,15,8.80
2017,06,16,13,16,8.80
2017,06,16,13,17,11.10
2017,06,16,13,18,12.20
2017,06,16,13,19,11.40
2017,06,16,13,20,6.80
2017,06,16,13,21,7.00
2017,06,16,13,22,13.80
2017,06,16,13,23,8.50
2017,06,16,13,24,8.00
2017,06,16,13,25,11.20
2017,06,16,13,26,10.10
2017,06,16,13,27,7.00
2017,06,16,13,28,7.30
2017,06,16,13,29,4.90
2017,06,16,13,30,8.20
2017,06,16,13,31,8.00
2017,06,16,13,32,8.70
2017,06,16,13,33,9.90
2017,06,16,13,34,5.50
2017,06,16,13,35,5.80
2017,06,16,13,36,1.20
2017,06,16,13,37,4.30
2017,06,16,13,38,6.00
2017,06,16,13,39,7.50
2017,06,16,13,40,5.90
2017,06,16,13,41,5.00
2017,06,16,13,42,13.00
2017,06,16,13,43,10.50
2017,06,16,13,44,4.60
2017,06,16,13,45,4.70
2017,06,16,13,46,6.80
2017,06,16,13,47,2.90
2017,06,16,13,48,9.00
2017,06,16,13,49,11.20
2017,06,16,13,50,10.80
2017,06,16,13,51,8.00
2017,06,16,13,52,4.60
2017,06,16,13,53,7.60
2017,06,16,13,54,7.90
2017,06,16,13,55,7.60
2017,06,16,13,56,6.40
2017,06,16,13,57,2.30
2017,06,16,13,58,7.00
2017,06,16,13,59,1.10
2017,06,16,14,00,4.50
2017,06,16,14,01,5.10
2017,06,16,14,02,5.60
2017,06,16,14,03,7.20
2017,06,16,14,04,2.50
2017,06,16,14,05,2.70
2017,06,16,14,06,1.40
2017,06,16,14,07,7.00
2017,06,16,14,08,5.80
2017,06,16,14,09,6.40
2017,06,16,14,10,8.20
2017,06,16,14,11,8.60
2017,06,16,14,12,9.10
2017,06,16,14,13,2.20
2017,06,16,14,14,4.60
2017,06,16,14,15,7.80
2017,06,16,14,16,10.70
2017,06,16,14,17,5.60
2017,06,16,14,18,2.80
2017,06,16,14,19,7.20
2017,06,16,14,20,7.70
2017,06,16,14,21,2.20
2017,06,16,14,22,4.20
2017,06,16,14,23,2.50
2017,06,16,14,24,3.30
2017,06,16,14,25,1.30
2017,06,16,14,26,2.90
2017,06,16,14,27,5.60
2017,06,16,14,28,7.30
2017,06,16,14,29,10.20
2017,06,16,14,30,4.30
2017,06,16,14,31,6.00
2017,06,16,14,32,6.90
2017,06,16,14,33,9.30
2017,06,16,14,34,8.10
2017,06,16,14,35,10.90
2017,06,16,14,36,14.20
2017,06,16,14,37,10.70
2017,06,16,14,38,8.50
2017,06,16,14,39,7.70
2017,06,16,14,40,8.00
2017,06,16,14,41,1.50
2017,06,16,14,42,0.00
2017,06,16,14,43,2.30
2017,06,16,14,44,7.40
2017,06,16,14,45,6.90
2017,06,16,14,46,2.00
2017,06,16,14,47,4.00
2017,06,16,14,48,4.30
2017,06,16,14,49,11.70
2017,06,16,14,50,11.30
2017,06,16,14,51,16.60
2017,06,16,14,52,12.90
2017,06,16,14,53,8.70
2017,06,16,14,54,8.00
2017,06,16,14,55,0.20
2017,06,16,14,56,0.00
2017,06,16,14,57,2.10
2017,06,16,14,58,8.50
2017,06,16,14,59,7.60
2017,06,16,15,00,8.40
2017,06,16,15,01,5.60
2017,06,16,15,02,6.40
2017,06,16,15,03,9.70
2017,06,16,15,04,2.30
2017,06,16,15,05,1.50
2017,06,16,15,06,1.20
2017,06,16,15,07,2.30
2017,06,16,15,08,11.80
2017,06,16,15,09,3.60
2017,06,16,15,10,0.10
2017,06,16,15,11,2.70
2017,06,16,15,12,11.70
2017,06,16,15,13,10.70
2017,06,16,15,14,9.70
2017,06,16,15,15,1.00
2017,06,16,15,16,3.20
2017,06,16,15,17,6.30
2017,06,16,15,18,14.00
2017,06,16,15,19,7.10
2017,06,16,15,20,11.30
2017,06,16,15,21,11.40
2017,06,16,15,22,10.30
2017,06,16,15,23,8.60
2017,06,16,15,24,11.10
2017,06,16,15,25,11.50
2017,06,16,15,26,4.40
2017,06,16,15,27,5.20
2017,06,16,15,28,8.10
2017,06,16,15,29,14.40
2017,06,16,15,30,14.20
2017,06,16,15,31,11.00
2017,06,16,15,32,5.10
2017,06,16,15,33,6.90
2017,06,16,15,34,7.90
2017,06,16,15,35,6.90
2017,06,16,15,36,8.60
2017,06,16,15,37,10.80
2017,06,16,15,38,9.30
2017,06,16,15,39,13.10
2017,06,16,15,40,8.90
2017,06,16,15,41,10.20
2017,06,16,15,42,13.60
2017,06,16,15,43,13.10
2017,06,16,15,44,10.50
2017,06,16,15,45,3.20
2017,06,16,15,46,10.10
2017,06,16,15,47,12.40
2017,06,16,15,48,5.20
2017,06,16,15,49,8.90
2017,06,16,15,50,10.50
2017,06,16,15,51,11.70
2017,06,16,15,52,11.80
2017,06,16,15,53,5.70
2017,06,16,15,54,4.20
2017,06,16,15,55,9.80
2017,06,16,15,56,11.80
2017,06,16,15,57,14.10
2017,06,16,15,58,6.60
2017,06,16,15,59,10.50
2017,06,16,16,00,11.20
2017,06,16,16,01,9.70
2017,06,16,16,02,3.10
2017,06,16,16,03,5.40
2017,06,16,16,04,9.30
2017,06,16,16,05,4.80
2017,06,16,16,06,3.80
2017,06,16,16,07,3.10
2017,06,16,16,08,5.90
2017,06,16,16,09,5.30
2017,06,16,16,10,6.90
2017,06,16,16,11,10.00
2017,06,16,16,12,13.00
2017,06,16,16,13,8.80
2017,06,16,16,14,5.60
2017,06,16,16,15,2.60
2017,06,16,16,16,5.40
2017,06,16,16,17,3.30
2017,06,16,16,18,7.60
2017,06,16,16,19,11.90
2017,06,16,16,20,11.00
2017,06,16,16,21,5.20
2017,06,16,16,22,7.10
2017,06,16,16,23,12.30
2017,06,16,16,24,8.00
2017,06,16,16,25,4.30
2017,06,16,16,26,5.40
2017,06,16,16,27,4.70
2017,06,16,16,28,3.10
2017,06,16,16,29,0.10
2017,06,16,16,30,0.00
2017,06,16,16,31,3.40
2017,06,16,16,32,7.30
2017,06,16,16,33,13.10
2017,06,16,16,34,11.00
2017,06,16,16,35,9.00
2017,06,16,16,36,8.60
2017,06,16,16,37,13.00
2017,06,16,16,38,10.00
2017,06,16,16,39,11.70
2017,06,16,16,40,0.60
2017,06,16,16,41,9.10
2017,06,16,16,42,0.50
2017,06,16,16,43,13.40
2017,06,16,16,44,12.40
2017,06,16,16,45,6.20
2017,06,16,16,46,9.50
2017,06,16,16,47,2.00
2017,06,16,16,48,6.10
2017,06,16,16,49,13.00
2017,06,16,16,50,10.00
2017,06,16,16,51,1.70
2017,06,16,16,52,11.30
2017,06,16,16,53,11.30
2017,06,16,16,54,8.50
2017,06,16,16,55,7.60
2017,06,16,16,56,10.30
2017,06,16,16,57,5.20
2017,06,16,16,58,9.70
2017,06,16,16,59,6.40
2017,06,16,17,00,0.50
2017,06,16,17,01,6.60
2017,06,16,17,02,12.00
2017,06,16,17,03,2.30
2017,06,16,17,04,10.20
2017,06,16,17,05,9.30
2017,06,16,17,06,10.80
2017,06,16,17,07,0.60
2017,06,16,17,08,4.30
2017,06,16,17,09,8.70
2017,06,16,17,10,2.40
2017,06,16,17,11,13.40
2017,06,16,17,12,9.30
2017,06,16,17,13,0.20
2017,06,16,17,14,2.40
2017,06,16,17,15,4.30
2017,06,16,17,16,15.40
2017,06,16,17,17,6.00
2017,06,16,17,18,11.00
2017,06,16,17,19,13.10
2017,06,16,17,20,8.90
2017,06,16,17,21,14.60
2017,06,16,17,22,10.50
2017,06,16,17,23,9.30
2017,06,16,17,24,8.10
2017,06,16,17,25,11.90
2017,06,16,17,26,5.60
2017,06,16,17,27,2.70
2017,06,16,17,28,3.90
2017,06,16,17,29,2.50
2017,06,16,17,30,0.60
2017,06,16,17,31,5.50
2017,06,16,17,32,3.90
2017,06,16,17,33,5.30
2017,06,16,17,34,1.40
2017,06,16,17,35,2.50
2017,06,16,17,36,8.90
2017,06,16,17,37,1.00
2017,06,16,17,38,0.30
2017,06,16,17,39,8.70
2017,06,16,17,40,8.50
2017,06,16,17,41,1.00
2017,06,16,17,42,1.30
2017,06,16,17,43,5.20
2017,06,16,17,44,0.00
2017,06,16,17,45,7.60
2017,06,16,17,46,6.30
2017,06,16,17,47,8.50
2017,06,16,17,48,8.70
2017,06,16,17,49,9.80
2017,06,16,17,50,9.00
2017,06,16,17,51,6.50
2017,06,16,17,52,4.90
2017,06,16,17,53,0.00
2017,06,16,17,54,8.90
2017,06,16,17,55,2.70
2017,06,16,17,56,2.00
2017,06,16,17,57,6.00
2017,06,16,17,58,4.60
2017,06,16,17,59,4.00
2017,06,16,18,00,1.50
2017,06,16,18,01,4.90